User: anonymous   Login
Location: Unspecified
(0.0000°N, 0.0000°E)
Time: 21:57:22
(UTC+00:00)
Language:

AO-40 - Orbit

View from above orbital plane
View from above orbital plane
View from above satellite
View from above satellite

Ground track
Ground track

The orbit data is extracted from the following two-line orbital elements,

1 26609U 00072B   24279.43993662 -.00000111  00000-0  00000+0 0  9991
2 26609   7.3570  79.5598 7988051 348.4322   0.5051  1.25588931109861
Epoch (UTC): 05 October 2024 10:33:30
Eccentricity: 0.7988051
inclination: 7.3570°
perigee height: 923 km
apogee height: 58897 km
right ascension of ascending node: 79.5598°
argument of perigee: 348.4322°
revolutions per day: 1.25588931
mean anomaly at epoch: 0.5051°
orbit number at epoch: 10986

The dashed part of the orbit path shows where the satellite is in the earth's shadow,  

DLR